Location: Melbourne
(37.8170°S, 144.9670°E)
Time: 05:35:00
(UTC+10:00)

Daily predictions for brighter satellites

Satellite Brightness Start Highest point End
(mag) Time Altitude Azimuth Time Altitude Azimuth Time Altitude Azimuth
USA 184 4.3 03:55:31 46° S 03:58:37 66° ESE 04:32:33 10° NE
SL-16 R/B 4.1 04:24:51 10° NNE 04:29:30 26° ENE 04:34:10 10° SE
Hubble Space Telescope 3.3 04:43:33 16° NE 04:43:33 16° NE 04:45:03 10° NE
Cosmos 2322 Rocket 3.5 04:39:09 10° N 04:44:18 39° ENE 04:49:32 10° SE
CZ-4 R/B 3.5 04:43:49 10° NE 04:47:09 25° ESE 04:48:23 22° SE
Meteor 1-26 Rocket 4.2 04:46:30 10° N 04:52:04 79° E 04:57:49 10° SSE
Cosmos 864 Rocket 4.4 04:52:48 73° NNW 04:52:48 73° NNW 04:58:34 10° N
NOSS 2-3 (D) 4.4 04:57:06 56° N 04:57:06 56° N 05:01:09 10° NNE
MOS 1 Rocket 3.9 04:54:34 10° NNE 04:59:46 66° ESE 05:02:58 25° S
IRS-1A Rocket 4.1 05:00:52 10° NNE 05:06:24 83° WNW 05:07:30 59° SSW
Meteor 2-19 Rocket 4.4 05:01:39 17° S 05:06:28 86° E 05:12:32 10° N
CZ-3 R/B 3.3 04:57:28 30° WNW 05:07:46 54° NNW 05:14:26 10° ENE
CSL-04 Debris 4.0 05:06:49 10° N 05:12:12 69° WNW 05:12:28 67° W
OTV 4 2.9 05:14:00 23° E 05:14:00 23° E 05:15:19 10° E
YAOGAN 1 4.0 05:09:33 10° NE 05:13:34 37° ESE 05:17:37 10° S
Cosmos 44 Rocket 4.4 05:12:20 27° S 05:14:14 39° SE 05:18:43 10° NE
Cosmos 1980 Rocket 3.0 05:18:22 34° SSW 05:18:22 34° SSW 05:22:05 10° S
Cosmos 2360 Rocket 4.4 05:13:07 10° NNE 05:17:41 25° ENE 05:22:16 10° SE
Thor Agena Rocket 3.7 05:13:54 10° S 05:25:52 - NNW 05:18:14 53° SW
Cosmos 921 Rocket 3.0 05:18:44 62° S 05:19:29 86° ESE 05:24:00 10° NNE
SPOT 3 Rocket 3.6 05:14:43 10° NNE 05:19:57 80° ESE 05:24:19 15° S
ATLAS 2AS CENTAUR R/B 4.2 05:23:25 17° NW 05:23:25 17° NW 05:25:35 10° NNW
CSL-04 Rocket 4.2 05:18:53 10° N 05:22:55 39° NW 05:22:55 39° NW
OAO 2 Rocket 4.3 05:25:46 30° NNW 05:26:06 30° NNW 05:30:24 10° NE
Cosmos 304 Rocket 4.0 05:21:59 10° N 05:26:47 72° ENE 05:31:39 10° SSE
Cosmos 389 Rocket 2.7 05:23:32 10° N 05:27:12 72° E 05:30:52 10° SSE
Iridium 4 Rocket 3.0 05:24:34 10° N 05:28:51 73° W 05:33:33 10° S
Cosmos 1821 Rocket 4.4 05:22:51 10° S 05:28:59 63° E 05:35:02 10° NNE
MOS 1 4.2 05:25:10 10° NNE 05:30:52 88° WNW 05:36:37 10° SSW
Cosmos 2227 4.3 05:30:59 43° WSW 05:32:24 53° WNW 05:37:53 10° N
Cosmos 1238 Rocket 3.5 05:29:19 10° N 05:34:20 66° E 05:38:27 10° SSE
Cosmos 1782 3.1 05:34:37 10° N 05:38:36 69° E 05:42:38 10° SSE
Cosmos 2263 Rocket 3.2 05:36:02 10° S 05:41:26 44° ESE 05:46:47 10° NE
Cosmos 2151 Rocket 3.7 05:42:47 34° SW 05:44:21 51° W 05:48:42 10° NNW
Genesis I 4.4 05:46:26 27° SSW 05:46:26 27° SSW 05:48:47 10° SSE
NOAA 15 4.5 05:43:10 10° N 05:48:27 78° WNW 05:53:47 10° SSW
BREEZE-M DEB (TANK) 4.5 05:46:16 27° WSW 05:48:35 33° SSW 05:52:05 10° SE
Cosmos 1535 Rocket 4.4 05:42:28 10° S 05:48:53 81° W 05:55:08 10° N
AQUARIUS 4.3 05:44:26 10° NNE 05:48:57 77° ESE 05:53:32 10° S
Cosmos 923 Rocket 4.3 05:47:40 11° NW 05:52:19 41° WSW 05:57:18 10° S
SL-24 R/B 3.6 05:49:48 10° N 05:53:28 64° W 05:56:01 19° SSW
PAYLOAD A 3.9 05:50:07 10° NNE 05:54:50 79° ESE 05:59:38 10° S
Okean 1 Rocket 3.3 05:51:46 10° S 05:56:16 72° E 06:00:39 10° NNE
Meteor 1-27 Rocket 4.4 05:51:35 10° N 05:57:25 62° E 06:03:12 10° SSE
Cosmos 1934 Rocket 4.0 05:52:52 10° S 05:59:09 88° W 06:05:27 10° N
Resurs 01 Rocket 4.4 05:58:39 10° ENE 06:01:21 16° ESE 06:04:04 10° SSE
Lacrosse 5 4.3 05:57:32 10° N 06:01:39 25° ENE 06:05:47 10° ESE
Cosmos 1680 Rocket 3.8 05:58:14 10° NW 06:03:14 43° WSW 06:08:19 10° S
Nadezhda 3 Rocket 4.5 05:59:23 10° NW 06:05:02 36° WSW 06:10:47 10° S
Meteor 2-10 Rocket 3.7 06:01:16 10° NNW 06:06:39 57° WSW 06:12:19 10° S
Meteor 1-25 Rocket 4.3 06:01:23 10° SSW 06:06:59 53° W 06:12:25 10° N
Tiangong 1 1.0 06:07:00 33° WSW 06:08:16 88° SSE 06:11:25 10° ENE
Meteor 2-21 Rocket 4.4 06:02:10 10° S 06:08:28 82° W 06:14:38 10° N
Cosmos 1371 Rocket 4.2 06:05:53 10° SSW 06:11:09 77° ESE 06:16:22 10° NNE
Meteor 2-6 Rocket 4.3 06:06:49 10° NNW 06:12:33 70° W 06:18:32 10° S
Meteor 1-10 Rocket 4.4 06:07:02 10° NNW 06:12:51 57° WSW 06:18:46 10° S
SL-16 R/B 2.6 06:08:02 10° NW 06:13:21 40° WSW 06:18:43 10° S
Cosmos 1809 Rocket 4.5 06:07:25 10° SSW 06:13:33 61° W 06:19:34 10° N
Cosmos 1975 Rocket 3.4 06:10:53 10° N 06:15:19 71° E 06:19:47 10° SSE
Cosmos 1378 Rocket 3.5 06:11:10 10° NNW 06:15:36 74° W 06:20:03 10° S
Cosmos 2056 Rocket 4.0 06:10:57 10° SSW 06:16:15 63° ESE 06:21:34 10° NNE
MONITOR-E 4.2 06:15:36 10° N 06:18:53 84° W 06:22:13 10° SSW
COSMO-SKYMED 1 3.1 06:15:30 10° SSE 06:19:53 66° E 06:24:14 10° N
Cosmos 1727 Rocket 4.1 06:13:39 10° N 06:19:56 87° E 06:26:14 10° S
Helios 1B rocket 4.0 06:16:47 10° SSE 06:20:47 40° E 06:24:43 10° N
Cosmos 1184 Rocket 4.3 06:21:26 19° WSW 06:21:57 20° W 06:24:30 10° NW
CZ-4 R/B 2.6 06:18:57 10° NNW 06:22:08 22° W 06:24:27 14° SW
SMAP 3.3 06:17:45 10° N 06:22:16 47° W 06:26:50 10° SSW
Hubble Space Telescope 2.7 06:19:25 10° NW 06:22:38 21° N 06:25:50 10° NE
Cosmos 1300 Rocket 3.8 06:19:36 10° SSW 06:23:57 47° W 06:28:12 10° NNW
Cosmos 1606 2.8 06:22:58 10° NNW 06:26:43 52° W 06:30:33 10° S
Molniya-3 4.1 06:25:36 11° SSW 06:28:23 87° ESE 06:40:37 10° NNE
Cosmos 2322 Rocket 3.0 06:23:38 10° WNW 06:28:25 28° WSW 06:33:17 10° S
Spot 1 4.2 06:31:54 10° NNE 06:36:08 83° ESE 06:40:39 10° SSW
ERBS 2.4 06:35:01 10° SW 06:38:38 83° NW 06:42:12 10° NE
Cosmos 1484 Rocket 3.3 06:35:59 10° NNE 06:40:01 67° ESE 06:44:06 10° S
NOSS 3-4 (A) 3.8 06:33:11 10° SW 06:40:05 58° WNW 06:46:35 10° NNE
NOSS 3-4 (C) 3.8 06:33:17 10° SW 06:40:12 59° WNW 06:46:41 10° NNE
Cosmos 2219 Rocket 4.4 06:37:41 10° NNE 06:42:30 30° ENE 06:47:23 10° SE
Molniya-2 4.0 06:40:34 10° SSW 06:43:12 72° ESE 06:51:49 10° NE
CZ-2C R/B 2.6 06:39:44 10° N 06:44:14 49° W 06:48:57 10° SSW
OTV 4 0.5 06:45:40 10° W 06:48:41 76° N 06:51:40 10° ENE
YAOGAN 1 4.1 06:46:51 10° NW 06:49:46 17° W 06:52:44 10° SW
FREGAT/IRIS 3.6 06:49:39 10° NNE 06:52:44 53° ESE 06:55:53 10° S
Cosmos 1400 Rocket 4.1 06:49:12 10° S 06:53:16 45° ESE 06:57:16 10° NNE
Cosmos 1536 2.8 06:51:36 10° SSW 06:55:40 69° W 06:59:38 10° N
IDEFIX/ARIANE 42P 2.9 06:51:14 10° N 06:56:19 50° W 07:01:28 10° SSW
